Flag for U.S.A. Weather past 2 weeks in Orange, California, U.S.A.

Now
73 °F

Sunny.


Feels Like: 77 °F
Forecast: 53 / 76 °F
Wind: 10 mph from West

Location: John Wayne Airport-Orange County Airport

Current Time: Apr 18, 2015 at 5:41:24 PM

Latest Report: Apr 18, 2015 at 4:53 PM


Visibility: 10 mi

Pressure: 29.93 "Hg

Humidity: 44%

Dew point: 50 °F

Location of OrangeLocation

Historic Weather in Orange — Graph

°F

Orange temperature yesterday

Maximum temperature yesterday: 79 °F (at 12:53 PM)
Minimum temperature yesterday: 56 °F (at 5:53 AM)
Average temperature yesterday: 67 °F

Past Weeks' High & Low Weather Summary

 TemperatureHumidityPressure
High80 °F (Apr 3, 4:53 PM)87% (Apr 7, 9:53 PM)30.11 "Hg (Apr 7, 9:53 PM)
Low52 °F (Apr 7, 3:53 AM)6% (Apr 16, 10:53 AM)29.85 "Hg (Apr 5, 5:53 PM)
Average63 °F54%29.97 "Hg
* Reported Apr 3 4:53 PM — Apr 18 4:00 PM, Orange, Weather by CustomWeather, © 2015

Note: Actual official high and low records may vary slightly from our data, if they occured in-between our weather recording intervals... More about our weather records

Advertising

Orange weather history for previous 24 hours

 ConditionsComfort  
Time TempWeatherWind HumidityBarometerVisibility
4:00 PM
Sat, Apr 18
72 °FSunny.12 mph47%29.93 "Hg10 mi
2:53 PM73 °FPassing clouds.13 mph41%29.94 "Hg10 mi
1:53 PM73 °FSunny.13 mph40%29.96 "Hg10 mi
12:53 PM72 °FSunny.12 mph43%29.98 "Hg10 mi
11:53 AM71 °FSunny.12 mph45%30.00 "Hg10 mi
10:53 AM70 °FSunny.9 mph44%30.02 "Hg10 mi
9:53 AM69 °FSunny.5 mph35%30.01 "Hg10 mi
8:53 AM66 °FSunny.No wind42%30.01 "Hg10 mi
7:53 AM62 °FSunny.No wind48%30.02 "Hg10 mi
6:53 AM57 °FClear.No wind53%30.00 "Hg10 mi
5:53 AM56 °FClear.No wind55%30.00 "Hg10 mi
4:53 AM56 °FClear.No wind58%29.99 "Hg10 mi
3:53 AM58 °FClear.No wind54%29.98 "Hg10 mi
2:53 AM59 °FClear.No wind67%29.99 "Hg10 mi
1:53 AM59 °FClear.3 mph69%30.01 "Hg10 mi
12:53 AM59 °FClear.3 mph72%30.03 "Hg10 mi
11:53 PM
Fri, Apr 17
62 °FClear.No wind62%30.03 "Hg10 mi
10:53 PM62 °FClear.3 mph60%30.02 "Hg10 mi
9:53 PM64 °FClear.No wind54%30.01 "Hg10 mi
8:53 PM64 °FClear.3 mph54%30.01 "Hg10 mi
7:53 PM66 °FSunny.6 mph45%29.99 "Hg10 mi
6:53 PM70 °FSunny.8 mph34%29.97 "Hg10 mi
5:53 PM74 °FSunny.6 mph24%29.96 "Hg10 mi
Weather by CustomWeather, © 2015

See weather overviewHow to use our weather pages